• In Moldova, Republic
  • List of Countries
  • For 7 days
  • Water Temperature
  • Satellite Maps
  • Weather Map
  • Weather Widgets
  • user-avatar
    Login

    Hourly Weather Gjirokaster

    Today, 22 January, Sunday

    Time Temperature Precipitation Wind Pressure Humidity
    00:00 -5°C° 0 mm 2 mps 656 mmHg 83%
    01:00 -5°C° 0 mm 2 mps 656 mmHg 82%
    02:00 -5°C° 0 mm 2 mps 656 mmHg 83%
    03:00 -5°C° 0 mm 2 mps 655 mmHg 83%
    04:00 -5°C° 0 mm 2 mps 655 mmHg 83%
    05:00 -5°C° 0 mm 2 mps 655 mmHg 83%
    06:00 -5°C° 0 mm 2 mps 655 mmHg 83%
    07:00 -5°C° 0 mm 2 mps 655 mmHg 83%
    08:00 -4°C° 0 mm 2 mps 656 mmHg 80%
    09:00 -2°C° 0 mm 2 mps 657 mmHg 76%
    10:00 +1°C° 0 mm 2 mps 657 mmHg 73%
    11:00 +2°C° 0 mm 2 mps 657 mmHg 71%
    12:00 +3°C° 0 mm 2 mps 657 mmHg 69%
    13:00 +5°C° 0 mm 1 mps 657 mmHg 67%
    14:00 +4°C° 0 mm 1 mps 657 mmHg 72%
    15:00 +3°C° 0 mm 1 mps 656 mmHg 76%
    16:00 +2°C° 0 mm 1 mps 656 mmHg 81%
    17:00 -1°C° 0 mm 2 mps 656 mmHg 83%
    18:00 -2°C° 0 mm 2 mps 656 mmHg 84%
    19:00 -3°C° 0 mm 2 mps 656 mmHg 85%
    20:00 -4°C° 0 mm 2 mps 656 mmHg 86%
    21:00 -5°C° 0 mm 3 mps 655 mmHg 86%
    22:00 -5°C° 0 mm 3 mps 655 mmHg 86%
    23:00 -6°C° 0 mm 3 mps 655 mmHg 85%

    Tomorrow, 23 January, Monday

    Time Temperature Precipitation Wind Pressure Humidity
    00:00 -6°C° 0 mm 3 mps 655 mmHg 85%
    01:00 -6°C° 0 mm 3 mps 655 mmHg 84%
    02:00 -6°C° 0 mm 3 mps 654 mmHg 84%
    03:00 -6°C° 0 mm 3 mps 654 mmHg 84%
    04:00 -7°C° 0 mm 3 mps 653 mmHg 84%
    05:00 -7°C° 0 mm 3 mps 653 mmHg 84%
    06:00 -7°C° 0 mm 3 mps 653 mmHg 84%
    07:00 -8°C° 0 mm 4 mps 653 mmHg 83%
    08:00 -5°C° 0 mm 3 mps 653 mmHg 80%
    09:00 -4°C° 0 mm 3 mps 654 mmHg 76%
    10:00 -1°C° 0 mm 3 mps 654 mmHg 72%
    11:00 -1°C° 0 mm 3 mps 654 mmHg 73%
    12:00 -1°C° 0 mm 4 mps 653 mmHg 74%
    13:00 -1°C° 0 mm 4 mps 653 mmHg 74%
    14:00 -2°C° 0.2 mm 4 mps 652 mmHg 78%
    15:00 -2°C° 0.2 mm 4 mps 652 mmHg 81%
    16:00 -3°C° 0.2 mm 4 mps 651 mmHg 84%
    17:00 -3°C° 0.4 mm 4 mps 651 mmHg 85%
    18:00 -3°C° 0.4 mm 4 mps 650 mmHg 86%
    19:00 -4°C° 0.4 mm 4 mps 650 mmHg 88%
    20:00 -4°C° 0.9 mm 4 mps 650 mmHg 89%
    21:00 -4°C° 0.9 mm 4 mps 650 mmHg 90%
    22:00 -4°C° 0.9 mm 4 mps 650 mmHg 91%
    23:00 -4°C° 0.9 mm 4 mps 649 mmHg 91%

    Day after tomorrow, 24 January, Tuesday

    Time Temperature Precipitation Wind Pressure Humidity
    00:00 -4°C° 0.9 mm 4 mps 649 mmHg 92%
    01:00 -4°C° 0.9 mm 4 mps 648 mmHg 92%
    02:00 -4°C° 0.9 mm 4 mps 648 mmHg 92%
    03:00 -4°C° 0.9 mm 3 mps 647 mmHg 92%
    04:00 -4°C° 0.9 mm 3 mps 647 mmHg 92%
    05:00 -4°C° 1.8 mm 3 mps 647 mmHg 93%
    06:00 -4°C° 1.8 mm 3 mps 647 mmHg 94%
    07:00 -4°C° 1.8 mm 3 mps 647 mmHg 94%
    08:00 -4°C° 0.4 mm 3 mps 647 mmHg 93%
    09:00 -2°C° 0.4 mm 3 mps 647 mmHg 92%
    10:00 -2°C° 0.4 mm 3 mps 648 mmHg 91%
    11:00 -1°C° 0 mm 3 mps 647 mmHg 90%
    12:00 -1°C° 0 mm 2 mps 647 mmHg 89%
    13:00 +1°C° 0 mm 2 mps 647 mmHg 88%
    14:00 +1°C° 0 mm 2 mps 647 mmHg 88%
    15:00 +1°C° 0 mm 2 mps 647 mmHg 89%
    16:00 +1°C° 0 mm 2 mps 647 mmHg 90%
    17:00 -1°C° 0 mm 2 mps 647 mmHg 90%
    18:00 -2°C° 0 mm 2 mps 647 mmHg 90%
    19:00 -3°C° 0 mm 2 mps 647 mmHg 91%
    20:00 -3°C° 0.1 mm 2 mps 647 mmHg 90%
    21:00 -3°C° 0.1 mm 2 mps 647 mmHg 90%
    22:00 -4°C° 0.1 mm 3 mps 647 mmHg 90%
    23:00 -4°C° 0 mm 2 mps 647 mmHg 90%

    25 January, Wednesday

    Time Temperature Precipitation Wind Pressure Humidity
    00:00 -4°C° 0 mm 2 mps 647 mmHg 90%
    01:00 -4°C° 0 mm 2 mps 647 mmHg 90%
    02:00 -4°C° 0 mm 2 mps 647 mmHg 90%
    03:00 -5°C° 0 mm 2 mps 647 mmHg 90%
    04:00 -5°C° 0 mm 2 mps 647 mmHg 90%
    05:00 -5°C° 0 mm 2 mps 647 mmHg 89%
    06:00 -5°C° 0 mm 2 mps 648 mmHg 89%
    07:00 -5°C° 0 mm 2 mps 648 mmHg 88%
    08:00 -4°C° 0 mm 2 mps 649 mmHg 86%
    09:00 -2°C° 0 mm 2 mps 650 mmHg 84%
    10:00 +1°C° 0 mm 2 mps 651 mmHg 82%
    11:00 +2°C° 0 mm 2 mps 651 mmHg 80%
    12:00 +3°C° 0 mm 1 mps 651 mmHg 78%
    13:00 +4°C° 0 mm 1 mps 651 mmHg 76%
    14:00 +4°C° 0 mm 1 mps 651 mmHg 79%
    15:00 +3°C° 0 mm 1 mps 651 mmHg 82%
    16:00 +2°C° 0 mm 1 mps 651 mmHg 85%
    17:00 -1°C° 0 mm 2 mps 651 mmHg 86%
    18:00 -3°C° 0 mm 2 mps 651 mmHg 87%
    19:00 -4°C° 0 mm 2 mps 651 mmHg 88%
    20:00 -4°C° 0 mm 2 mps 651 mmHg 88%
    21:00 -5°C° 0 mm 2 mps 652 mmHg 88%
    22:00 -5°C° 0 mm 2 mps 652 mmHg 87%
    23:00 -5°C° 0 mm 2 mps 652 mmHg 87%

    26 January, Thursday

    Time Temperature Precipitation Wind Pressure Humidity
    00:00 -6°C° 0 mm 2 mps 652 mmHg 86%
    01:00 -6°C° 0 mm 2 mps 652 mmHg 86%
    02:00 -6°C° 0 mm 2 mps 652 mmHg 85%
    03:00 -6°C° 0 mm 2 mps 652 mmHg 85%
    04:00 -6°C° 0 mm 2 mps 652 mmHg 84%
    05:00 -6°C° 0 mm 2 mps 652 mmHg 84%
    06:00 -6°C° 0 mm 2 mps 652 mmHg 84%
    07:00 -6°C° 0 mm 2 mps 652 mmHg 84%
    08:00 -5°C° 0 mm 2 mps 653 mmHg 80%
    09:00 -3°C° 0 mm 2 mps 654 mmHg 76%
    10:00 -2°C° 0 mm 2 mps 654 mmHg 72%
    11:00 -1°C° 0 mm 2 mps 654 mmHg 71%
    12:00 +2°C° 0 mm 1 mps 654 mmHg 70%
    13:00 +3°C° 0 mm 1 mps 654 mmHg 69%
    14:00 +2°C° 0 mm 1 mps 654 mmHg 73%
    15:00 +1°C° 0 mm 2 mps 654 mmHg 76%
    16:00 -1°C° 0 mm 2 mps 654 mmHg 79%
    17:00 -2°C° 0 mm 2 mps 654 mmHg 81%
    18:00 -4°C° 0 mm 2 mps 654 mmHg 83%
    19:00 -5°C° 0 mm 2 mps 654 mmHg 85%
    20:00 -5°C° 0 mm 2 mps 654 mmHg 84%
    21:00 -6°C° 0 mm 2 mps 655 mmHg 84%
    22:00 -6°C° 0 mm 2 mps 655 mmHg 83%
    23:00 -6°C° 0 mm 2 mps 655 mmHg 82%

    27 January, Friday

    Time Temperature Precipitation Wind Pressure Humidity
    00:00 -7°C° 0 mm 2 mps 655 mmHg 81%
    01:00 -7°C° 0 mm 2 mps 655 mmHg 80%
    02:00 -7°C° 0 mm 2 mps 654 mmHg 79%
    03:00 -8°C° 0 mm 2 mps 654 mmHg 78%
    04:00 -8°C° 0 mm 2 mps 654 mmHg 77%
    05:00 -8°C° 0 mm 2 mps 654 mmHg 76%
    06:00 -8°C° 0 mm 2 mps 654 mmHg 75%
    07:00 -8°C° 0 mm 2 mps 654 mmHg 74%
    08:00 -6°C° 0 mm 2 mps 655 mmHg 69%
    09:00 -2°C° 0 mm 1 mps 656 mmHg 64%
    10:00 0°C° 0 mm 1 mps 656 mmHg 60%
    11:00 0°C° 0 mm 1 mps 656 mmHg 61%
    12:00 +1°C° 0 mm 1 mps 656 mmHg 62%
    13:00 +2°C° 0 mm 1 mps 656 mmHg 63%
    14:00 +1°C° 0 mm 1 mps 656 mmHg 68%
    15:00 0°C° 0 mm 1 mps 655 mmHg 73%
    16:00 0°C° 0 mm 1 mps 655 mmHg 78%
    17:00 -2°C° 0 mm 1 mps 655 mmHg 81%
    18:00 -3°C° 0 mm 1 mps 654 mmHg 85%
    19:00 -6°C° 0 mm 1 mps 654 mmHg 89%
    20:00 -6°C° 0 mm 1 mps 654 mmHg 89%
    21:00 -6°C° 0 mm 1 mps 654 mmHg 89%
    22:00 -4°C° 0 mm 1 mps 654 mmHg 89%
    23:00 -4°C° 0 mm 1 mps 654 mmHg 89%
    Show more